Regional Weather Roundup
Issued by NWS

Home | Current Version | Previous Version | Text Only | Print | Product List | Glossary On
Versions: 1 2 3 4 5 6 7 8 9 10 11 12 13 14 15 16 17 18 19 20 21 22 23 24 25 26 27 28 29 30 31 32 33 34 35 36 37 38 39 40 41 42 43 44 45 46 47 48 49 50
000
ASUS43 KLSX 301159
RWRMO

WEATHER SUMMARY FOR MISSOURI
NATIONAL WEATHER SERVICE SPRINGFIELD MO
700 AM CDT TUE JUN 30 2015

NOTE: "FAIR" INDICATES FEW OR NO CLOUDS BELOW 12,000 FEET WITH NO
       SIGNIFICANT WEATHER AND/OR OBSTRUCTIONS TO VISIBILITY.
       CURRENT SKY AND/OR WEATHER CONDITIONS ARE NOT AVAILABLE FOR
       CHILLICOTHE AND FARMINGTON.

MOZ001>031-035>038-043-044-053-054-301300-
...NORTHERN AND WESTERN MISSOURI...

CITY           SKY/WX    TMP DP  RH WIND       PRES   REMARKS
KANSAS CTY INT CLOUDY    67  64  90 W7        29.93R
6HR MIN TEMP:  66; 6HR MAX TEMP:  73;

KANSAS C DTWN  MOSUNNY   72  67  84 SW3       29.92R
6HR MIN TEMP:  71; 6HR MAX TEMP:  75;

LEE`S SUMMIT   MOSUNNY   67  63  87 SW7       29.94R
6HR MIN TEMP:  66; 6HR MAX TEMP:  73;

ST JOSEPH      PTSUNNY   66  64  93 CALM      29.92R
6HR MIN TEMP:  64; 6HR MAX TEMP:  70;

CHILLICOTHE      N/A     66  65  96 CALM      29.93R
6HR MIN TEMP:  65; 6HR MAX TEMP:  69;

KIRKSVILLE     SUNNY     66  63  90 W5        29.91S
6HR MIN TEMP:  64; 6HR MAX TEMP:  67;


$$
MOZ066>068-077>081-088>096-101>105-301300-
...SOUTHWEST MISSOURI...

CITY           SKY/WX    TMP DP  RH WIND       PRES   REMARKS
SPRINGFIELD    SUNNY     68  61  78 SW7       29.98R
6HR MIN TEMP:  67; 6HR MAX TEMP:  71;

JOPLIN         PTCLDY    67  65  93 CALM      29.98R
6HR MIN TEMP:  66; 6HR MAX TEMP:  71;


$$
MOZ032>034-039>042-045>050-055>058-069>072-301300-
...CENTRAL MISSOURI...

CITY           SKY/WX    TMP DP  RH WIND       PRES   REMARKS
COLUMBIA       SUNNY     69  65  86 W5        29.93R
6HR MIN TEMP:  68; 6HR MAX TEMP:  71;

JEFFERSON CITY SUNNY     67  66  97 CALM      29.92R FOG
6HR MIN TEMP:  67; 6HR MAX TEMP:  71;

ROLLA          SUNNY     66  65  96 CALM      29.94R
6HR MIN TEMP:  65; 6HR MAX TEMP:  69;

SEDALIA        SUNNY     69  66  90 SW5       29.94S
6HR MIN TEMP:  68; 6HR MAX TEMP:  74;

OSAGE BEACH    SUNNY     70  64  83 SW5       29.95R

$$
MOZ051-052-059>065-301300-
...EAST CENTRAL MISSOURI...

CITY           SKY/WX    TMP DP  RH WIND       PRES   REMARKS
ST LOUIS INTL  NOT AVBL
SPIRIT OF STL  SUNNY     68  67  96 CALM      29.89R
6HR MIN TEMP:  66; 6HR MAX TEMP:  69; 6HR PCP:  0.01;

ST CHARLES     SUNNY     69  67  93 SW3       29.88R
6HR MIN TEMP:  67; 6HR MAX TEMP:  73;


$$
MOZ072>076-082>087-097>100-106>115-301300-
...SOUTH CENTRAL AND SOUTHEAST MISSOURI...

CITY           SKY/WX    TMP DP  RH WIND       PRES   REMARKS
CAPE GIRARDEAU PTSUNNY   71  68  90 SW3       29.90R
6HR MIN TEMP:  67; 6HR MAX TEMP:  71;

FARMINGTON     SUNNY     68  63  83 W3        29.96R
6HR MIN TEMP:  66; 6HR MAX TEMP:  70;

POPLAR BLUFF   MOSUNNY   70  66  87 NW5       29.91R
6HR MIN TEMP:  69; 6HR MAX TEMP:  73;

WEST PLAINS    SUNNY     67  63  87 W6        29.98R
6HR MIN TEMP:  66; 6HR MAX TEMP:  68;


$$


USA.gov is the U.S. government's official web portal to all federal, state and local government web resources and services.